[[{"header":{"parameterUnit":"m.s-1","parameterCategory":1,"la1":30.2991,"la2":30.254,"lo1":-89.0895,"lo2":-89.0444,"dy":0.0017,"dx":0.0017,"nx":28,"ny":28,"refTime":"2024-04-28T21:00:00:Z","depth":0,"parameterNumber":2,"parameterNumberName":"U-component_of_WINDS"},"data":[0,0,0,0,0,0,0,0,0,0,0,0,0,0,0,0,0,0,0,0,0,0,0,0,0,0,0,0,0,0,0,0,0,0,0,0,0,0,0,0,0,0,0,0,0,0,0,0,0,0,0,0,0,0,0,0,0,0,-5.641,-5.6412,0,-5.6567,-5.6569,-5.657,-5.6565,-5.6563,-5.6561,-5.6559,-5.6717,-5.6723,-5.6729,0,0,0,0,0,0,0,0,0,0,0,0,0,-5.6104,-5.6109,-5.641,-5.6412,-5.6414,-5.6567,-5.6569,-5.6571,-5.6566,-5.6563,-5.656,-5.6558,-5.6715,-5.6722,-5.673,0,0,0,0,0,0,0,0,0,0,0,0,0,-5.6246,-5.6111,-5.641,-5.643,-5.6433,-5.6566,-5.6569,-5.6572,-5.6566,-5.6563,-5.656,-5.6557,-5.6712,-5.6721,-5.6731,-5.6853,0,0,-5.6759,-5.6763,0,0,0,0,0,0,0,0,-5.6238,-5.6257,-5.6425,-5.6429,-5.6433,-5.6543,-5.6519,-5.6666,-5.6567,-5.6516,-5.6559,-5.6555,-5.6662,-5.6675,-5.6711,-5.686,-5.6867,-5.676,-5.6766,-5.677,-5.6772,0,0,0,0,0,0,0,-5.6228,-5.6251,-5.6472,-5.6427,-5.6432,-5.643,-5.6447,-5.6547,-5.6605,-5.652,-5.652,-5.6539,-5.6663,-5.6702,-5.6715,-5.687,-5.676,-5.6768,-5.6774,-5.6777,-5.7126,-5.713,0,0,0,0,0,0,-5.6214,-5.6242,-5.6467,-5.6477,-5.6325,-5.6438,-5.6457,-5.6511,-5.6604,-5.6615,-5.6541,-5.6538,-5.6688,-5.6704,-5.672,-5.6869,-5.677,-5.6778,-5.6784,-5.7123,-5.7127,-5.7131,0,0,0,0,0,0,-5.6208,-5.6235,-5.6461,-5.636,-5.6388,-5.6447,-5.6508,-5.6516,-5.6555,-5.662,-5.663,-5.6571,-5.6686,-5.6707,-5.682,-5.6874,-5.6782,-5.6791,-5.7118,-5.7124,-5.7129,-5.7166,0,0,0,0,0,0,-5.6199,-5.6232,-5.628,-5.6361,-5.6394,-5.6558,-5.6511,-5.6521,-5.6571,-5.6568,-5.665,-5.6661,-5.6685,-5.6806,-5.6829,-5.6885,-5.6798,-5.7114,-5.7121,-5.7127,-5.7161,-5.7173,-5.7183,0,0,0,0,0,-5.6188,-5.6284,-5.6282,-5.6309,-5.6455,-5.6561,-5.658,-5.6607,-5.6576,-5.6624,-5.6665,-5.6658,-5.6865,-5.6818,-5.6844,-5.6903,-5.711,-5.7119,-5.7127,-5.7156,-5.717,-5.7183,0,0,0,0,0,0,-5.6206,-5.6294,-5.6294,-5.6419,-5.6483,-5.656,-5.6621,-5.6622,-5.6695,-5.6689,-5.6719,-5.6738,-5.685,-5.6889,-5.6834,-5.7026,-5.6984,-5.6997,-5.6997,-5.7011,-5.7022,-5.7009,-5.6806,0,0,0,0,0,-5.6225,-5.6305,-5.6378,-5.6481,-5.6513,-5.6562,-5.6609,-5.6625,-5.6692,-5.6719,-5.6769,-5.6834,-5.6913,-5.6965,-5.7042,-5.7167,-5.7184,-5.7221,-5.7232,-5.7241,-5.7252,-5.732,-5.7336,-5.7158,-5.7158,-5.7158,0,0,-5.6264,-5.6322,-5.637,-5.6486,-5.6537,-5.6619,-5.6585,-5.6672,-5.6732,-5.6732,-5.6841,-5.688,-5.6955,-5.7074,-5.7129,-5.7109,-5.7305,-5.7252,-5.7258,-5.7264,-5.733,-5.7347,-5.7361,-5.7164,-5.7163,-5.7162,0,0,-5.6375,-5.6429,-5.6519,-5.6572,-5.6651,-5.6683,-5.6705,-5.6783,-5.6809,-5.692,-5.6921,-5.6993,-5.713,-5.7183,-5.7227,-5.7361,-5.7356,-5.7385,-5.7442,-5.7508,-5.7521,-5.7534,-5.7579,-5.7596,-5.7396,-5.7396,-5.7396,0,-5.6413,-5.6536,-5.6566,-5.6654,-5.6704,-5.6709,-5.6801,-5.685,-5.695,-5.6984,-5.6961,-5.7133,-5.7183,-5.7314,-5.7347,-5.7384,-5.7409,-5.7374,-5.7517,-5.753,-5.7542,-5.7586,-5.7603,-5.7399,-5.7399,-5.7398,-5.7398,0,-5.6578,-5.6664,-5.6728,-5.6824,-5.6882,-5.6972,-5.7014,-5.7069,-5.708,-5.7114,-5.7226,-5.7288,-5.7376,-5.741,-5.7421,-5.7542,-5.7527,-5.7511,-5.7468,-5.7562,-5.7603,-5.762,-5.7403,-5.7402,-5.7401,-5.7401,0,0,-5.6703,-5.6816,-5.6838,-5.6882,-5.697,-5.7036,-5.7126,-5.7214,-5.726,-5.7329,-5.7404,-5.752,-5.7506,-5.7556,-5.7574,-5.7633,-5.7732,-5.7609,-5.7611,-5.7627,-5.7867,-5.7877,-5.7896,-5.7731,-5.7734,-5.7737,-5.786,0,-5.6822,-5.6981,-5.7011,-5.7149,-5.7228,-5.7235,-5.7313,-5.7375,-5.741,-5.7481,-5.752,-5.7601,-5.7577,-5.7607,-5.7665,-5.7707,-5.778,-5.7699,-5.7799,-5.7802,-5.7777,-5.7918,-5.7929,-5.8042,-5.7877,-5.788,-5.7882,0,-5.6981,-5.7055,-5.7201,-5.7279,-5.7313,-5.7382,-5.7465,-5.7534,-5.7604,-5.7626,-5.7683,-5.7695,-5.7787,-5.7743,-5.787,-5.7814,-5.7857,-5.7884,-5.7889,-5.7897,-5.7845,-5.7927,-5.8079,-5.8095,-5.7908,-5.7906,-5.7904,0,-5.7055,-5.7191,-5.7296,-5.7333,-5.7427,-5.7475,-5.7516,-5.7584,-5.7634,-5.7707,-5.774,-5.7823,-5.7867,-5.793,-5.7963,-5.7928,-5.8088,-5.8046,-5.8106,-5.8105,-5.8137,-5.8134,-5.8295,-5.8169,-5.8169,-5.8169,-5.8168,0,-5.7183,-5.7271,-5.733,-5.7394,-5.7493,-5.7527,-5.7624,-5.7665,-5.7725,-5.7796,-5.7808,-5.7875,-5.7916,-5.7988,-5.8015,-5.8115,-5.8136,-5.8155,-5.816,-5.8152,-5.8149,-5.8178,-5.817,-5.8173,-5.8172,-5.8171,-5.8171,0,-5.728,-5.7323,-5.7437,-5.7517,-5.7539,-5.7609,-5.7676,-5.7738,-5.7774,-5.7865,-5.7888,-5.7943,-5.8029,-5.807,-5.8176,-5.8194,-5.8307,-5.8309,-5.8283,-5.8285,-5.8342,-5.8335,-5.8525,-5.8551,-5.841,-5.8412,-5.8413,0,-5.7358,-5.7426,-5.7513,-5.7562,-5.7604,-5.7684,-5.7736,-5.7772,-5.7826,-5.7911,-5.7963,-5.805,-5.8121,-5.8258,-5.8307,-5.8389,-5.8391,-5.8452,-5.8403,-5.8392,-5.8389,-5.8383,-5.8389,-5.846,-5.8461,-5.8462,-5.8463,0,-5.749,-5.7508,-5.7583,-5.7666,-5.7728,-5.7795,-5.786,-5.79,-5.7946,-5.8006,-5.8094,-5.815,-5.8259,-5.8344,-5.8429,-5.8471,-5.8474,-5.8479,-5.8496,-5.8487,-5.8469,-5.8477,-5.8304,-5.8473,-5.8472,-5.8471,-5.8471,-5.847,-5.7578,-5.7639,-5.7709,-5.7792,-5.7846,-5.7907,-5.7969,-5.8013,-5.8088,-5.8179,-5.8197,-5.829,-5.8359,-5.8474,-5.8518,-5.8592,-5.8577,-5.8603,-5.861,-5.8615,-5.8617,-5.846,-5.8608,-5.8607,-5.8607,-5.8607,-5.8607,0,-5.7709,-5.7755,-5.7831,-5.7923,-5.7988,-5.7988,-5.806,-5.8114,-5.8197,-5.8261,-5.8331,-5.8432,-5.8516,-5.8572,-5.8657,-5.8704,-5.8708,-5.8725,-5.872,-5.8729,-5.8626,-5.8601,-5.872,-5.872,-5.872,-5.872,-5.872,-5.872,-5.7784,-5.7886,-5.7913,-5.8042,-5.8087,-5.8179,-5.822,-5.8276,-5.8328,-5.8441,-5.851,-5.8547,-5.8608,-5.8697,-5.8773,-5.8787,-5.8817,-5.8834,-5.8847,-5.8749,-5.8737,-5.8725,-5.8702,-5.8841,-5.8841,-5.8945,-5.8945,-5.8946]},{"header":{"parameterUnit":"m.s-1","parameterCategory":1,"la1":30.2991,"la2":30.254,"lo1":-89.0895,"lo2":-89.0444,"dy":0.0017,"dx":0.0017,"nx":28,"ny":28,"refTime":"2024-04-28T21:00:00:Z","depth":0,"parameterNumber":3,"parameterNumberName":"V-component_of_WINDS"},"data":[0,0,0,0,0,0,0,0,0,0,0,0,0,0,0,0,0,0,0,0,0,0,0,0,0,0,0,0,0,0,0,0,0,0,0,0,0,0,0,0,0,0,0,0,0,0,0,0,0,0,0,0,0,0,0,0,0,0,5.4514,5.4514,0,5.4561,5.4562,5.4562,5.4495,5.4493,5.449,5.4488,5.4532,5.4536,5.4539,0,0,0,0,0,0,0,0,0,0,0,0,0,5.436,5.4363,5.4514,5.4514,5.4515,5.4561,5.4562,5.4563,5.4496,5.4493,5.449,5.4487,5.4531,5.4535,5.4539,0,0,0,0,0,0,0,0,0,0,0,0,0,5.4419,5.4364,5.4514,5.4487,5.4485,5.4561,5.4562,5.4563,5.4496,5.4493,5.4489,5.4486,5.453,5.4535,5.454,5.4642,0,0,5.4555,5.4558,0,0,0,0,0,0,0,0,5.4416,5.4425,5.449,5.4489,5.4487,5.4519,5.4524,5.4589,5.4497,5.4492,5.4488,5.4484,5.453,5.4535,5.4552,5.4644,5.4646,5.4556,5.4559,5.4561,5.4562,0,0,0,0,0,0,0,5.4412,5.4422,5.4532,5.4491,5.4489,5.4471,5.4476,5.4536,5.453,5.4492,5.4487,5.4494,5.4529,5.4547,5.4552,5.4647,5.4556,5.456,5.4563,5.4565,5.4827,5.483,0,0,0,0,0,0,5.4412,5.4419,5.4531,5.4534,5.4442,5.4477,5.4482,5.4512,5.453,5.4529,5.4497,5.4491,5.454,5.4546,5.4554,5.4675,5.4561,5.4566,5.4569,5.4823,5.4827,5.4832,0,0,0,0,0,0,5.4409,5.4422,5.4529,5.4475,5.4488,5.4484,5.4518,5.4515,5.4533,5.4534,5.4532,5.4517,5.4538,5.4546,5.4621,5.4676,5.4568,5.4573,5.4818,5.4824,5.483,5.4919,0,0,0,0,0,0,5.4404,5.4422,5.4461,5.4477,5.4491,5.4597,5.4521,5.4518,5.4543,5.4535,5.4552,5.4551,5.4535,5.4614,5.4626,5.4681,5.4577,5.4813,5.4821,5.4828,5.4911,5.4927,5.494,0,0,0,0,0,5.4399,5.4483,5.4464,5.4477,5.4541,5.46,5.4608,5.459,5.4547,5.4587,5.4587,5.4551,5.4668,5.4622,5.4636,5.4692,5.481,5.4819,5.4827,5.4904,5.4924,5.494,0,0,0,0,0,0,5.4472,5.4485,5.4463,5.4555,5.4578,5.4589,5.4638,5.4611,5.4645,5.4636,5.461,5.4614,5.4695,5.4701,5.465,5.4793,5.4731,5.4743,5.4786,5.4804,5.4819,5.4815,5.4581,0,0,0,0,0,5.4499,5.4548,5.4556,5.4636,5.4649,5.4642,5.4667,5.4652,5.4673,5.4681,5.4687,5.4708,5.4749,5.4777,5.4815,5.4912,5.4914,5.4957,5.4972,5.4984,5.4994,5.5046,5.5065,5.486,5.486,5.486,0,0,5.4555,5.4568,5.46,5.4651,5.4667,5.4717,5.465,5.4706,5.4742,5.4689,5.4761,5.4766,5.4787,5.4874,5.4912,5.4881,5.5052,5.4995,5.5005,5.5009,5.5057,5.5076,5.5094,5.4866,5.4865,5.4864,0,0,5.4682,5.4697,5.4766,5.4784,5.4809,5.4804,5.4821,5.4837,5.4839,5.4911,5.4872,5.4914,5.4987,5.5004,5.5022,5.5158,5.5125,5.5171,5.5248,5.5298,5.5314,5.5329,5.5377,5.5394,5.5181,5.5181,5.5181,0,5.4748,5.4823,5.4804,5.4864,5.4887,5.4844,5.4913,5.493,5.4965,5.4982,5.4948,5.5038,5.505,5.5139,5.5173,5.5189,5.5207,5.5168,5.5314,5.5328,5.5341,5.5386,5.5404,5.5187,5.5186,5.5186,5.5185,0,5.4902,5.4955,5.5008,5.5046,5.5075,5.5139,5.5128,5.516,5.5142,5.5141,5.5214,5.5227,5.5267,5.5288,5.527,5.5375,5.5355,5.5318,5.5256,5.5366,5.5408,5.5426,5.5194,5.5192,5.5191,5.5189,0,0,5.5075,5.5104,5.5123,5.514,5.5165,5.5205,5.5267,5.5308,5.5335,5.5362,5.5412,5.5475,5.5441,5.5462,5.5446,5.549,5.5597,5.5447,5.5448,5.5474,5.5713,5.5741,5.5762,5.5576,5.558,5.5582,5.5712,0,5.5202,5.531,5.5296,5.5399,5.5448,5.5408,5.5461,5.5482,5.5483,5.5523,5.5522,5.5568,5.552,5.5532,5.5574,5.5575,5.5644,5.5566,5.5621,5.5624,5.5617,5.5784,5.5813,5.5934,5.5728,5.5731,5.5733,0,5.5364,5.5399,5.5508,5.5526,5.5546,5.5595,5.5632,5.5671,5.5694,5.5691,5.5715,5.5691,5.5752,5.569,5.5773,5.5719,5.5742,5.5746,5.575,5.5753,5.5684,5.5791,5.5972,5.5991,5.5759,5.5757,5.5755,0,5.5479,5.5553,5.5627,5.5643,5.5667,5.5702,5.5713,5.5732,5.5759,5.5791,5.5807,5.5845,5.5866,5.5895,5.5882,5.5839,5.5967,5.5904,5.5966,5.5966,5.5994,5.5992,5.618,5.6009,5.6009,5.6009,5.6008,0,5.5622,5.569,5.568,5.5726,5.58,5.5783,5.5857,5.5863,5.5881,5.5926,5.5894,5.5937,5.5918,5.5959,5.5949,5.6019,5.6028,5.6027,5.6023,5.603,5.603,5.6043,5.6034,5.6014,5.6013,5.6012,5.6011,0,5.5762,5.5758,5.5837,5.5854,5.586,5.5914,5.5928,5.5971,5.5969,5.6027,5.604,5.6037,5.6085,5.6075,5.6126,5.612,5.6207,5.6193,5.62,5.6197,5.6259,5.6253,5.6461,5.6488,5.63,5.6302,5.6304,0,5.5853,5.5905,5.5928,5.5958,5.5972,5.6019,5.6046,5.6031,5.606,5.6091,5.613,5.6174,5.6209,5.6287,5.6288,5.6328,5.6314,5.6385,5.6319,5.6324,5.6315,5.6312,5.6316,5.6397,5.6399,5.6401,5.6402,0,5.6015,5.6011,5.6053,5.6094,5.6128,5.6159,5.6186,5.6212,5.6199,5.6233,5.6282,5.631,5.6363,5.6408,5.6445,5.6454,5.6427,5.6423,5.6439,5.6446,5.6448,5.6447,5.6235,5.6418,5.6417,5.6415,5.6415,5.6414,5.6134,5.6178,5.6202,5.6249,5.6269,5.6296,5.6337,5.6342,5.6383,5.6427,5.6415,5.6471,5.6492,5.6539,5.6553,5.6596,5.6569,5.6592,5.6598,5.6604,5.6612,5.6442,5.6602,5.6602,5.6601,5.6601,5.6601,0,5.6294,5.6308,5.6351,5.6392,5.6429,5.6402,5.6431,5.6464,5.6514,5.6537,5.6573,5.6629,5.6673,5.6679,5.672,5.6753,5.6741,5.6764,5.6761,5.6763,5.6633,5.6615,5.6773,5.6773,5.6773,5.6773,5.6773,5.6773,5.6381,5.6455,5.6454,5.6537,5.655,5.6606,5.6625,5.665,5.6668,5.6733,5.677,5.6774,5.6791,5.6833,5.6871,5.6872,5.6888,5.6916,5.6912,5.679,5.6773,5.6756,5.6739,5.692,5.692,5.7038,5.7039,5.704]}]]